Time,TemperatureF,DewpointF,PressureIn,WindDirection,WindDirectionDegrees,WindSpeedMPH,WindSpeedGustMPH,Humidity,HourlyPrecipIn,Conditions,Clouds,dailyrainin,SoftwareType,DateUTC
2013-07-19 00:00:00,79.9,64.3,28.04,NE,34,6.0,10.0,59,0.00,00:00,,0.00,WeatherDisplay:WD co,2013-07-18 21:00:00,
2013-07-19 00:05:00,80.1,64.0,28.05,NE,35,5.0,12.0,58,0.00,00:05,,0.00,WeatherDisplay:WD co,2013-07-18 21:05:00,
2013-07-19 00:10:00,80.1,64.0,28.05,NE,38,3.0,8.0,58,0.00,00:10,,0.00,WeatherDisplay:WD co,2013-07-18 21:10:00,
2013-07-19 00:15:00,80.1,64.0,28.04,NE,44,1.0,7.0,58,0.00,00:15,,0.00,WeatherDisplay:WD co,2013-07-18 21:15:00,
2013-07-19 00:20:00,80.2,64.1,28.05,NE,52,6.0,9.0,58,0.00,00:20,,0.00,WeatherDisplay:WD co,2013-07-18 21:20:00,
2013-07-19 00:25:00,80.1,64.0,28.05,NE,35,6.0,12.0,58,0.00,00:25,,0.00,WeatherDisplay:WD co,2013-07-18 21:25:00,
2013-07-19 00:30:00,80.1,64.0,28.05,NNE,33,0.0,9.0,58,0.00,00:30,,0.00,WeatherDisplay:WD co,2013-07-18 21:30:00,
2013-07-19 00:35:00,80.1,64.0,28.04,ENE,57,5.0,8.0,58,0.00,00:35,,0.00,WeatherDisplay:WD co,2013-07-18 21:35:00,
2013-07-19 00:40:00,80.1,64.0,28.05,NE,47,1.0,11.0,58,0.00,00:40,,0.00,WeatherDisplay:WD co,2013-07-18 21:40:00,
2013-07-19 00:45:00,80.1,64.0,28.05,NE,56,3.0,13.0,58,0.00,00:45,,0.00,WeatherDisplay:WD co,2013-07-18 21:45:00,
2013-07-19 00:50:00,80.1,64.0,28.04,NE,39,3.0,9.0,58,0.00,00:50,,0.00,WeatherDisplay:WD co,2013-07-18 21:50:00,
2013-07-19 00:55:00,80.1,64.0,28.04,NE,36,3.0,8.0,58,0.00,00:55,,0.00,WeatherDisplay:WD co,2013-07-18 21:55:00,
2013-07-19 01:00:00,80.1,64.0,28.04,NNE,23,3.0,11.0,58,0.00,01:00,,0.00,WeatherDisplay:WD co,2013-07-18 22:00:00,
2013-07-19 01:05:00,79.9,63.8,28.04,NNE,27,3.0,11.0,58,0.00,01:05,,0.00,WeatherDisplay:WD co,2013-07-18 22:05:00,
2013-07-19 01:10:00,79.9,63.8,28.04,NE,40,3.0,8.0,58,0.00,01:10,,0.00,WeatherDisplay:WD co,2013-07-18 22:10:00,
2013-07-19 01:15:00,79.7,63.6,28.04,NE,47,3.0,9.0,58,0.00,01:15,,0.00,WeatherDisplay:WD co,2013-07-18 22:15:00,
2013-07-19 01:20:00,79.7,63.6,28.04,NE,42,1.0,6.0,58,0.00,01:20,,0.00,WeatherDisplay:WD co,2013-07-18 22:20:00,
2013-07-19 01:25:00,79.7,63.6,28.04,NE,44,3.0,8.0,58,0.00,01:25,,0.00,WeatherDisplay:WD co,2013-07-18 22:25:00,
2013-07-19 01:40:00,79.0,63.9,28.03,NE,50,1.0,4.0,60,0.00,01:40,,0.00,WeatherDisplay:WD co,2013-07-18 22:40:00,
2013-07-19 01:45:00,78.8,64.2,28.03,NE,53,1.0,4.0,61,0.00,01:45,,0.00,WeatherDisplay:WD co,2013-07-18 22:45:00,
2013-07-19 01:50:00,78.6,64.0,28.04,NE,51,0.0,3.0,61,0.00,01:50,,0.00,WeatherDisplay:WD co,2013-07-18 22:50:00,
2013-07-19 01:55:00,78.4,64.3,28.03,ENE,68,0.0,5.0,62,0.00,01:55,,0.00,WeatherDisplay:WD co,2013-07-18 22:55:00,
2013-07-19 02:00:00,78.4,64.3,28.03,East,90,0.0,3.0,62,0.00,02:00,,0.00,WeatherDisplay:WD co,2013-07-18 23:00:00,
2013-07-19 02:10:00,78.3,64.2,28.03,NNE,29,2.0,7.0,62,0.00,02:10,,0.00,WeatherDisplay:WD co,2013-07-18 23:10:00,
2013-07-19 02:15:00,78.1,64.0,28.02,NE,41,1.0,6.0,62,0.00,02:15,,0.00,WeatherDisplay:WD co,2013-07-18 23:15:00,
2013-07-19 02:20:00,78.1,64.0,28.02,NE,42,0.0,4.0,62,0.00,02:20,,0.00,WeatherDisplay:WD co,2013-07-18 23:20:00,
2013-07-19 02:25:00,78.1,64.0,28.03,ENE,65,3.0,7.0,62,0.00,02:25,,0.00,WeatherDisplay:WD co,2013-07-18 23:25:00,
2013-07-19 02:30:00,78.1,64.0,28.02,NE,53,3.0,7.0,62,0.00,02:30,,0.00,WeatherDisplay:WD co,2013-07-18 23:30:00,
2013-07-19 02:35:00,77.9,63.8,28.02,NE,48,1.0,4.0,62,0.00,02:35,,0.00,WeatherDisplay:WD co,2013-07-18 23:35:00,
2013-07-19 02:40:00,78.1,63.5,28.02,ENE,59,1.0,8.0,61,0.00,02:40,,0.00,WeatherDisplay:WD co,2013-07-18 23:40:00,
2013-07-19 02:45:00,78.1,63.5,28.02,ENE,71,0.0,4.0,61,0.00,02:45,,0.00,WeatherDisplay:WD co,2013-07-18 23:45:00,
2013-07-19 02:50:00,78.1,63.5,28.02,NNE,23,2.0,8.0,61,0.00,02:50,,0.00,WeatherDisplay:WD co,2013-07-18 23:50:00,
2013-07-19 03:05:00,77.9,63.8,28.02,NNW,339,0.0,4.0,62,0.00,03:05,,0.00,WeatherDisplay:WD co,2013-07-19 00:05:00,
2013-07-19 03:10:00,77.7,63.7,28.02,North,9,0.0,0.0,62,0.00,03:10,,0.00,WeatherDisplay:WD co,2013-07-19 00:10:00,
2013-07-19 03:20:00,77.5,63.5,28.01,SSE,151,0.0,0.0,62,0.00,03:20,,0.00,WeatherDisplay:WD co,2013-07-19 00:20:00,
2013-07-19 03:25:00,77.5,63.5,28.01,SE,124,0.0,4.0,62,0.00,03:25,,0.00,WeatherDisplay:WD co,2013-07-19 00:25:00,
2013-07-19 03:30:00,77.5,63.5,28.01,ENE,66,0.0,4.0,62,0.00,03:30,,0.00,WeatherDisplay:WD co,2013-07-19 00:30:00,
2013-07-19 03:40:00,77.5,63.5,28.01,NNE,26,1.0,5.0,62,0.00,03:40,,0.00,WeatherDisplay:WD co,2013-07-19 00:40:00,
2013-07-19 03:45:00,77.5,63.5,28.01,NE,45,2.0,4.0,62,0.00,03:45,,0.00,WeatherDisplay:WD co,2013-07-19 00:45:00,
2013-07-19 03:55:00,77.4,63.3,28.01,SSW,194,0.0,4.0,62,0.00,03:55,,0.00,WeatherDisplay:WD co,2013-07-19 00:55:00,
2013-07-19 04:00:00,77.5,63.5,28.01,ENE,59,1.0,8.0,62,0.00,04:00,,0.00,WeatherDisplay:WD co,2013-07-19 01:00:00,
2013-07-19 04:05:00,77.5,63.5,28.00,NE,53,0.0,4.0,62,0.00,04:05,,0.00,WeatherDisplay:WD co,2013-07-19 01:05:00,
2013-07-19 04:10:00,77.5,63.5,28.01,NW,315,0.0,0.0,62,0.00,04:10,,0.00,WeatherDisplay:WD co,2013-07-19 01:10:00,
2013-07-19 04:15:00,77.2,63.2,28.00,NNW,335,0.0,0.0,62,0.00,04:15,,0.00,WeatherDisplay:WD co,2013-07-19 01:15:00,
2013-07-19 04:20:00,77.2,63.2,28.00,NNW,335,0.0,0.0,62,0.00,04:15,,0.00,WeatherDisplay:WD co,2013-07-19 01:20:00,
2013-07-19 04:25:00,77.0,63.0,28.00,ENE,59,0.0,3.0,62,0.00,04:25,,0.00,WeatherDisplay:WD co,2013-07-19 01:25:00,
2013-07-19 04:35:00,76.8,63.3,27.99,NW,309,0.0,4.0,63,0.00,04:35,,0.00,WeatherDisplay:WD co,2013-07-19 01:35:00,
2013-07-19 04:40:00,76.8,63.3,27.99,NNE,27,2.0,5.0,63,0.00,04:40,,0.00,WeatherDisplay:WD co,2013-07-19 01:40:00,
2013-07-19 04:45:00,77.0,63.4,28.00,NE,37,0.0,5.0,63,0.00,04:45,,0.00,WeatherDisplay:WD co,2013-07-19 01:45:00,
2013-07-19 04:50:00,76.8,63.3,27.99,NNE,23,0.0,4.0,63,0.00,04:50,,0.00,WeatherDisplay:WD co,2013-07-19 01:50:00,
2013-07-19 04:55:00,77.0,63.4,27.99,NNE,20,1.0,5.0,63,0.00,04:55,,0.00,WeatherDisplay:WD co,2013-07-19 01:55:00,
2013-07-19 05:00:00,76.8,63.3,27.99,NE,50,0.0,4.0,63,0.00,05:00,,0.00,WeatherDisplay:WD co,2013-07-19 02:00:00,
2013-07-19 05:05:00,77.0,63.4,27.99,NE,46,1.0,8.0,63,0.00,05:05,,0.00,WeatherDisplay:WD co,2013-07-19 02:05:00,
2013-07-19 05:10:00,77.0,63.4,27.99,NNE,33,1.0,4.0,63,0.00,05:10,,0.00,WeatherDisplay:WD co,2013-07-19 02:10:00,
2013-07-19 05:15:00,77.0,63.4,27.99,NNE,21,1.0,6.0,63,0.00,05:15,,0.00,WeatherDisplay:WD co,2013-07-19 02:15:00,
2013-07-19 05:25:00,77.0,63.4,27.98,NNE,25,0.0,9.0,63,0.00,05:25,,0.00,WeatherDisplay:WD co,2013-07-19 02:25:00,
2013-07-19 05:30:00,77.0,63.4,27.99,WNW,294,0.0,4.0,63,0.00,05:30,,0.00,WeatherDisplay:WD co,2013-07-19 02:30:00,
2013-07-19 05:35:00,77.0,63.4,27.99,SW,230,0.0,2.0,63,0.00,05:35,,0.00,WeatherDisplay:WD co,2013-07-19 02:35:00,
2013-07-19 05:40:00,77.2,63.6,27.99,NNE,22,0.0,8.0,63,0.00,05:40,,0.00,WeatherDisplay:WD co,2013-07-19 02:40:00,
2013-07-19 05:45:00,77.2,63.6,27.99,NE,56,0.0,6.0,63,0.00,05:45,,0.00,WeatherDisplay:WD co,2013-07-19 02:45:00,
2013-07-19 05:55:00,76.8,63.7,27.99,WNW,296,1.0,6.0,64,0.00,05:55,,0.00,WeatherDisplay:WD co,2013-07-19 02:55:00,
2013-07-19 06:00:00,77.0,63.9,27.99,ESE,123,1.0,5.0,64,0.00,06:00,,0.00,WeatherDisplay:WD co,2013-07-19 03:00:00,
2013-07-19 06:05:00,77.0,63.9,27.99,ENE,66,0.0,3.0,64,0.00,06:05,,0.00,WeatherDisplay:WD co,2013-07-19 03:05:00,
2013-07-19 06:10:00,77.2,63.2,27.99,NE,43,0.0,14.0,62,0.00,06:10,,0.00,WeatherDisplay:WD co,2013-07-19 03:10:00,
2013-07-19 06:20:00,77.5,63.0,27.99,ENE,58,1.0,8.0,61,0.00,06:20,,0.00,WeatherDisplay:WD co,2013-07-19 03:20:00,
2013-07-19 06:25:00,77.9,62.9,27.99,NE,55,0.0,9.0,60,0.00,06:25,,0.00,WeatherDisplay:WD co,2013-07-19 03:25:00,
2013-07-19 06:30:00,77.9,63.4,28.00,ENE,66,1.0,8.0,61,0.00,06:30,,0.00,WeatherDisplay:WD co,2013-07-19 03:30:00,
2013-07-19 06:40:00,77.7,63.7,28.00,NNE,16,0.0,0.0,62,0.00,06:40,,0.00,WeatherDisplay:WD co,2013-07-19 03:40:00,
2013-07-19 06:45:00,77.4,63.8,28.00,West,265,0.0,2.0,63,0.00,06:45,,0.00,WeatherDisplay:WD co,2013-07-19 03:45:00,
2013-07-19 07:10:00,78.3,63.7,27.99,NE,36,0.0,10.0,61,0.00,07:10,,0.00,WeatherDisplay:WD co,2013-07-19 04:10:00,
2013-07-19 07:15:00,78.3,64.2,28.01,NNE,32,0.0,3.0,62,0.00,07:15,,0.00,WeatherDisplay:WD co,2013-07-19 04:15:00,
2013-07-19 07:20:00,79.5,65.4,28.01,East,82,1.0,5.0,62,0.00,07:20,,0.00,WeatherDisplay:WD co,2013-07-19 04:20:00,
2013-07-19 07:35:00,81.7,65.5,28.01,East,79,1.0,4.0,58,0.00,07:35,,0.00,WeatherDisplay:WD co,2013-07-19 04:35:00,
2013-07-19 07:45:00,82.0,65.8,28.01,NE,41,1.0,6.0,58,0.00,07:40,,0.00,WeatherDisplay:WD co,2013-07-19 04:45:00,
2013-07-19 07:50:00,82.0,66.3,28.01,ENE,64,3.0,10.0,59,0.00,07:50,,0.00,WeatherDisplay:WD co,2013-07-19 04:50:00,
2013-07-19 07:55:00,82.4,66.6,28.00,NE,42,2.0,8.0,59,0.00,07:55,,0.00,WeatherDisplay:WD co,2013-07-19 04:55:00,
2013-07-19 08:00:00,82.6,66.3,28.01,ENE,63,1.0,8.0,58,0.00,08:00,,0.00,WeatherDisplay:WD co,2013-07-19 05:00:00,
2013-07-19 08:10:00,82.6,66.8,28.01,NE,38,1.0,11.0,59,0.00,08:10,,0.00,WeatherDisplay:WD co,2013-07-19 05:10:00,
2013-07-19 08:15:00,83.1,66.8,28.01,ENE,63,1.0,9.0,58,0.00,08:15,,0.00,WeatherDisplay:WD co,2013-07-19 05:15:00,
2013-07-19 08:20:00,83.3,67.0,28.01,NE,35,3.0,11.0,58,0.00,08:20,,0.00,WeatherDisplay:WD co,2013-07-19 05:20:00,
2013-07-19 08:25:00,83.5,67.1,28.01,NNE,21,6.0,9.0,58,0.00,08:25,,0.00,WeatherDisplay:WD co,2013-07-19 05:25:00,
2013-07-19 08:30:00,83.5,67.1,28.01,NE,50,6.0,8.0,58,0.00,08:30,,0.00,WeatherDisplay:WD co,2013-07-19 05:30:00,
2013-07-19 08:35:00,84.0,67.1,28.01,NE,53,3.0,12.0,57,0.00,08:35,,0.00,WeatherDisplay:WD co,2013-07-19 05:35:00,
2013-07-19 08:40:00,84.0,67.1,28.00,ENE,58,5.0,12.0,57,0.00,08:40,,0.00,WeatherDisplay:WD co,2013-07-19 05:40:00,
2013-07-19 08:45:00,83.7,66.8,28.01,NE,44,3.0,11.0,57,0.00,08:45,,0.00,WeatherDisplay:WD co,2013-07-19 05:45:00,
2013-07-19 08:50:00,84.4,67.0,28.00,NE,46,3.0,9.0,56,0.00,08:50,,0.00,WeatherDisplay:WD co,2013-07-19 05:50:00,
2013-07-19 08:55:00,84.9,66.9,28.01,East,89,5.0,10.0,55,0.00,08:55,,0.00,WeatherDisplay:WD co,2013-07-19 05:55:00,
2013-07-19 09:00:00,84.6,67.1,28.01,NE,40,3.0,14.0,56,0.00,09:00,,0.00,WeatherDisplay:WD co,2013-07-19 06:00:00,
2013-07-19 09:05:00,84.4,66.4,28.01,NNE,30,5.0,21.0,55,0.00,09:05,,0.00,WeatherDisplay:WD co,2013-07-19 06:05:00,
2013-07-19 09:10:00,84.4,66.4,28.01,NNE,30,5.0,21.0,55,0.00,09:05,,0.00,WeatherDisplay:WD co,2013-07-19 06:10:00,
2013-07-19 09:15:00,84.4,65.9,28.02,ENE,63,9.0,17.0,54,0.00,09:15,,0.00,WeatherDisplay:WD co,2013-07-19 06:15:00,
2013-07-19 09:20:00,84.2,65.8,28.02,ESE,103,8.0,15.0,54,0.00,09:20,,0.00,WeatherDisplay:WD co,2013-07-19 06:20:00,
2013-07-19 09:25:00,84.0,65.6,28.01,NNE,29,6.0,15.0,54,0.00,09:25,,0.00,WeatherDisplay:WD co,2013-07-19 06:25:00,
2013-07-19 09:40:00,85.1,66.0,28.01,NE,34,2.0,17.0,53,0.00,09:40,,0.00,WeatherDisplay:WD co,2013-07-19 06:40:00,
2013-07-19 09:50:00,85.1,66.0,28.01,ENE,62,8.0,17.0,53,0.00,09:50,,0.00,WeatherDisplay:WD co,2013-07-19 06:50:00,
2013-07-19 09:55:00,84.9,65.9,28.01,ENE,74,8.0,20.0,53,0.00,09:55,,0.00,WeatherDisplay:WD co,2013-07-19 06:55:00,
2013-07-19 10:00:00,85.6,66.5,28.01,East,79,5.0,13.0,53,0.00,10:00,,0.00,WeatherDisplay:WD co,2013-07-19 07:00:00,
2013-07-19 10:05:00,86.0,66.3,28.02,NE,36,8.0,17.0,52,0.00,10:05,,0.00,WeatherDisplay:WD co,2013-07-19 07:05:00,
2013-07-19 10:10:00,85.8,66.7,28.02,NNE,22,0.0,27.0,53,0.00,10:10,,0.00,WeatherDisplay:WD co,2013-07-19 07:10:00,
2013-07-19 10:15:00,86.7,67.0,28.01,North,357,3.0,11.0,52,0.00,10:15,,0.00,WeatherDisplay:WD co,2013-07-19 07:15:00,
2013-07-19 10:25:00,86.5,66.8,28.01,ENE,65,1.0,12.0,52,0.00,10:25,,0.00,WeatherDisplay:WD co,2013-07-19 07:25:00,
2013-07-19 10:30:00,86.4,66.7,28.02,NE,49,5.0,14.0,52,0.00,10:30,,0.00,WeatherDisplay:WD co,2013-07-19 07:30:00,
2013-07-19 10:40:00,87.1,66.8,28.01,NNE,33,8.0,15.0,51,0.00,10:40,,0.00,WeatherDisplay:WD co,2013-07-19 07:40:00,
2013-07-19 10:45:00,86.9,66.6,28.01,North,11,3.0,12.0,51,0.00,10:45,,0.00,WeatherDisplay:WD co,2013-07-19 07:45:00,
2013-07-19 10:50:00,86.5,66.8,28.01,NE,34,6.0,14.0,52,0.00,10:50,,0.00,WeatherDisplay:WD co,2013-07-19 07:50:00,
2013-07-19 10:55:00,86.9,67.2,28.01,ENE,61,3.0,11.0,52,0.00,10:55,,0.00,WeatherDisplay:WD co,2013-07-19 07:55:00,
2013-07-19 11:00:00,88.2,67.2,28.01,NNE,27,3.0,10.0,50,0.00,11:00,,0.00,WeatherDisplay:WD co,2013-07-19 08:00:00,
2013-07-19 11:05:00,88.3,66.8,28.01,NE,35,5.0,13.0,49,0.00,11:05,,0.00,WeatherDisplay:WD co,2013-07-19 08:05:00,
2013-07-19 11:10:00,88.5,66.3,28.01,East,82,5.0,11.0,48,0.00,11:10,,0.00,WeatherDisplay:WD co,2013-07-19 08:10:00,
2013-07-19 11:15:00,88.2,65.4,28.01,NE,49,6.0,19.0,47,0.00,11:15,,0.00,WeatherDisplay:WD co,2013-07-19 08:15:00,
2013-07-19 11:20:00,88.3,65.6,28.01,NE,55,6.0,15.0,47,0.00,11:20,,0.00,WeatherDisplay:WD co,2013-07-19 08:20:00,
2013-07-19 11:25:00,88.9,66.0,28.00,NE,42,6.0,13.0,47,0.00,11:25,,0.00,WeatherDisplay:WD co,2013-07-19 08:25:00,
2013-07-19 11:30:00,88.9,66.0,28.01,NNE,30,8.0,15.0,47,0.00,11:30,,0.00,WeatherDisplay:WD co,2013-07-19 08:30:00,
2013-07-19 11:35:00,88.7,65.9,28.01,NE,37,5.0,14.0,47,0.00,11:35,,0.00,WeatherDisplay:WD co,2013-07-19 08:35:00,
2013-07-19 11:50:00,89.1,66.2,28.01,NE,35,0.0,14.0,47,0.00,11:50,,0.00,WeatherDisplay:WD co,2013-07-19 08:50:00,
2013-07-19 11:55:00,89.4,66.5,28.01,NNE,30,7.0,14.0,47,0.00,11:55,,0.00,WeatherDisplay:WD co,2013-07-19 08:55:00,
2013-07-19 12:00:00,89.4,66.5,28.01,NNE,30,7.0,14.0,47,0.00,11:55,,0.00,WeatherDisplay:WD co,2013-07-19 09:00:00,
2013-07-19 12:15:00,88.9,66.0,28.00,NNE,22,3.0,13.0,47,0.00,12:15,,0.00,WeatherDisplay:WD co,2013-07-19 09:15:00,
2013-07-19 12:20:00,88.9,66.0,28.01,SE,126,6.0,11.0,47,0.00,12:20,,0.00,WeatherDisplay:WD co,2013-07-19 09:20:00,
2013-07-19 12:25:00,89.2,66.4,28.01,SSE,148,3.0,10.0,47,0.00,12:25,,0.00,WeatherDisplay:WD co,2013-07-19 09:25:00,
2013-07-19 12:35:00,90.3,66.7,28.00,WSW,253,6.0,10.0,46,0.00,12:35,,0.00,WeatherDisplay:WD co,2013-07-19 09:35:00,
2013-07-19 12:40:00,90.0,66.4,28.01,ENE,75,2.0,12.0,46,0.00,12:40,,0.00,WeatherDisplay:WD co,2013-07-19 09:40:00,
2013-07-19 12:45:00,89.8,66.2,28.00,ENE,66,5.0,17.0,46,0.00,12:45,,0.00,WeatherDisplay:WD co,2013-07-19 09:45:00,
2013-07-19 12:50:00,89.6,66.1,28.00,North,350,3.0,15.0,46,0.00,12:50,,0.00,WeatherDisplay:WD co,2013-07-19 09:50:00,
2013-07-19 12:55:00,89.8,66.2,28.00,NNE,33,6.0,13.0,46,0.00,12:55,,0.00,WeatherDisplay:WD co,2013-07-19 09:55:00,
2013-07-19 13:00:00,89.8,66.2,28.00,NE,46,5.0,15.0,46,0.00,13:00,,0.00,WeatherDisplay:WD co,2013-07-19 10:00:00,
2013-07-19 13:05:00,89.8,66.9,27.99,ESE,114,6.0,12.0,47,0.00,13:05,,0.00,WeatherDisplay:WD co,2013-07-19 10:05:00,
2013-07-19 13:10:00,89.6,66.7,27.99,NE,54,3.0,14.0,47,0.00,13:10,,0.00,WeatherDisplay:WD co,2013-07-19 10:10:00,
2013-07-19 13:20:00,89.6,66.7,27.99,SE,143,2.0,12.0,47,0.00,13:20,,0.00,WeatherDisplay:WD co,2013-07-19 10:20:00,
2013-07-19 13:25:00,89.8,66.9,27.99,ESE,105,3.0,15.0,47,0.00,13:25,,0.00,WeatherDisplay:WD co,2013-07-19 10:25:00,
2013-07-19 13:30:00,90.3,67.4,27.99,East,100,3.0,11.0,47,0.00,13:30,,0.00,WeatherDisplay:WD co,2013-07-19 10:30:00,
2013-07-19 13:35:00,90.3,67.4,27.99,North,350,3.0,15.0,47,0.00,13:35,,0.00,WeatherDisplay:WD co,2013-07-19 10:35:00,
2013-07-19 13:40:00,90.7,67.7,27.99,North,8,2.0,15.0,47,0.00,13:40,,0.00,WeatherDisplay:WD co,2013-07-19 10:40:00,
2013-07-19 13:45:00,90.7,67.7,27.99,North,8,2.0,15.0,47,0.00,13:40,,0.00,WeatherDisplay:WD co,2013-07-19 10:45:00,
2013-07-19 13:55:00,89.8,66.9,27.99,NNE,19,3.0,12.0,47,0.00,13:55,,0.00,WeatherDisplay:WD co,2013-07-19 10:55:00,
2013-07-19 14:10:00,90.9,67.2,27.98,ESE,118,3.0,15.0,46,0.00,14:10,,0.00,WeatherDisplay:WD co,2013-07-19 11:10:00,
2013-07-19 14:15:00,91.0,67.4,27.98,NE,47,5.0,13.0,46,0.00,14:15,,0.00,WeatherDisplay:WD co,2013-07-19 11:15:00,
2013-07-19 14:25:00,91.9,66.9,27.98,NE,52,1.0,9.0,44,0.00,14:25,,0.00,WeatherDisplay:WD co,2013-07-19 11:25:00,
2013-07-19 14:35:00,91.8,66.7,27.97,ENE,68,3.0,9.0,44,0.00,14:35,,0.00,WeatherDisplay:WD co,2013-07-19 11:35:00,
2013-07-19 14:40:00,91.4,66.4,27.97,NE,52,3.0,12.0,44,0.00,14:40,,0.00,WeatherDisplay:WD co,2013-07-19 11:40:00,
2013-07-19 14:50:00,91.8,66.7,27.97,ESE,121,2.0,14.0,44,0.00,14:50,,0.00,WeatherDisplay:WD co,2013-07-19 11:50:00,
2013-07-19 14:55:00,91.4,66.4,27.98,East,96,3.0,15.0,44,0.00,14:55,,0.00,WeatherDisplay:WD co,2013-07-19 11:55:00,
2013-07-19 15:00:00,91.2,66.3,27.97,ENE,61,5.0,13.0,44,0.00,15:00,,0.00,WeatherDisplay:WD co,2013-07-19 12:00:00,
2013-07-19 15:05:00,91.6,66.6,27.97,ENE,62,3.0,11.0,44,0.00,15:05,,0.00,WeatherDisplay:WD co,2013-07-19 12:05:00,
2013-07-19 15:10:00,91.9,66.2,27.97,ESE,113,5.0,9.0,43,0.00,15:10,,0.00,WeatherDisplay:WD co,2013-07-19 12:10:00,
2013-07-19 15:15:00,91.9,66.2,27.97,SW,220,5.0,15.0,43,0.00,15:15,,0.00,WeatherDisplay:WD co,2013-07-19 12:15:00,
2013-07-19 15:20:00,91.9,66.9,27.97,SE,140,3.0,11.0,44,0.00,15:20,,0.00,WeatherDisplay:WD co,2013-07-19 12:20:00,
2013-07-19 15:25:00,92.1,67.1,27.97,East,92,2.0,9.0,44,0.00,15:25,,0.00,WeatherDisplay:WD co,2013-07-19 12:25:00,
2013-07-19 15:30:00,92.3,67.2,27.97,NE,46,2.0,11.0,44,0.00,15:30,,0.00,WeatherDisplay:WD co,2013-07-19 12:30:00,
2013-07-19 15:40:00,92.3,67.2,27.96,ENE,62,2.0,9.0,44,0.00,15:40,,0.00,WeatherDisplay:WD co,2013-07-19 12:40:00,
2013-07-19 15:45:00,92.5,67.4,27.96,ENE,65,5.0,11.0,44,0.00,15:45,,0.00,WeatherDisplay:WD co,2013-07-19 12:45:00,
2013-07-19 15:50:00,92.1,67.1,27.96,NE,35,2.0,10.0,44,0.00,15:50,,0.00,WeatherDisplay:WD co,2013-07-19 12:50:00,
2013-07-19 15:55:00,92.1,67.1,27.96,NNE,22,3.0,12.0,44,0.00,15:55,,0.00,WeatherDisplay:WD co,2013-07-19 12:55:00,
2013-07-19 16:00:00,92.5,66.7,27.96,NNE,33,8.0,13.0,43,0.00,16:00,,0.00,WeatherDisplay:WD co,2013-07-19 13:00:00,
2013-07-19 16:05:00,92.3,67.2,27.96,ENE,64,1.0,11.0,44,0.00,16:05,,0.00,WeatherDisplay:WD co,2013-07-19 13:05:00,
2013-07-19 16:25:00,91.4,66.4,27.95,East,99,3.0,13.0,44,0.00,16:25,,0.00,WeatherDisplay:WD co,2013-07-19 13:25:00,
2013-07-19 16:30:00,91.2,66.3,27.95,ENE,74,3.0,11.0,44,0.00,16:30,,0.00,WeatherDisplay:WD co,2013-07-19 13:30:00,
2013-07-19 16:40:00,91.2,66.3,27.95,East,92,3.0,11.0,44,0.00,16:40,,0.00,WeatherDisplay:WD co,2013-07-19 13:40:00,
2013-07-19 16:45:00,91.0,66.1,27.95,ENE,58,1.0,13.0,44,0.00,16:45,,0.00,WeatherDisplay:WD co,2013-07-19 13:45:00,
2013-07-19 16:50:00,91.0,66.1,27.95,NNE,16,1.0,14.0,44,0.00,16:50,,0.00,WeatherDisplay:WD co,2013-07-19 13:50:00,
2013-07-19 16:55:00,90.9,65.9,27.94,ENE,58,6.0,11.0,44,0.00,16:55,,0.00,WeatherDisplay:WD co,2013-07-19 13:55:00,
2013-07-19 17:05:00,90.3,66.1,27.95,East,86,5.0,11.0,45,0.00,17:05,,0.00,WeatherDisplay:WD co,2013-07-19 14:05:00,
2013-07-19 17:10:00,90.5,66.3,27.94,SSE,157,0.0,9.0,45,0.00,17:10,,0.00,WeatherDisplay:WD co,2013-07-19 14:10:00,
2013-07-19 17:15:00,90.5,66.3,27.94,South,189,6.0,11.0,45,0.00,17:15,,0.00,WeatherDisplay:WD co,2013-07-19 14:15:00,
2013-07-19 17:25:00,90.5,65.6,27.94,NE,50,3.0,10.0,44,0.00,17:25,,0.00,WeatherDisplay:WD co,2013-07-19 14:25:00,
2013-07-19 17:30:00,90.5,66.3,27.94,NE,44,8.0,13.0,45,0.00,17:30,,0.00,WeatherDisplay:WD co,2013-07-19 14:30:00,
2013-07-19 17:35:00,90.1,65.3,27.94,NE,49,2.0,10.0,44,0.00,17:35,,0.00,WeatherDisplay:WD co,2013-07-19 14:35:00,
2013-07-19 17:40:00,90.5,65.6,27.93,ENE,68,2.0,8.0,44,0.00,17:40,,0.00,WeatherDisplay:WD co,2013-07-19 14:40:00,
2013-07-19 17:45:00,90.1,65.3,27.93,ESE,103,0.0,10.0,44,0.00,17:45,,0.00,WeatherDisplay:WD co,2013-07-19 14:45:00,
2013-07-19 17:50:00,90.7,65.8,27.94,ESE,106,1.0,5.0,44,0.00,17:50,,0.00,WeatherDisplay:WD co,2013-07-19 14:50:00,
2013-07-19 18:00:00,90.5,64.9,27.93,ENE,68,6.0,11.0,43,0.00,18:00,,0.00,WeatherDisplay:WD co,2013-07-19 15:00:00,
2013-07-19 18:05:00,90.1,64.6,27.94,NE,53,0.0,11.0,43,0.00,18:05,,0.00,WeatherDisplay:WD co,2013-07-19 15:05:00,
2013-07-19 18:10:00,90.1,64.6,27.94,North,350,6.0,12.0,43,0.00,18:10,,0.00,WeatherDisplay:WD co,2013-07-19 15:10:00,
2013-07-19 18:15:00,89.8,65.0,27.94,NNE,25,3.0,17.0,44,0.00,18:15,,0.00,WeatherDisplay:WD co,2013-07-19 15:15:00,
2013-07-19 18:20:00,89.1,63.7,27.94,NE,53,7.0,13.0,43,0.00,18:20,,0.00,WeatherDisplay:WD co,2013-07-19 15:20:00,
2013-07-19 18:25:00,89.1,64.3,27.94,ENE,61,6.0,12.0,44,0.00,18:25,,0.00,WeatherDisplay:WD co,2013-07-19 15:25:00,
2013-07-19 18:30:00,89.2,65.1,27.94,NE,45,6.0,11.0,45,0.00,18:30,,0.00,WeatherDisplay:WD co,2013-07-19 15:30:00,
2013-07-19 18:35:00,88.9,64.1,27.93,ENE,69,2.0,8.0,44,0.00,18:35,,0.00,WeatherDisplay:WD co,2013-07-19 15:35:00,
2013-07-19 18:40:00,88.9,64.8,27.93,ENE,63,0.0,12.0,45,0.00,18:40,,0.00,WeatherDisplay:WD co,2013-07-19 15:40:00,
2013-07-19 18:45:00,89.4,64.6,27.93,ENE,66,1.0,5.0,44,0.00,18:45,,0.00,WeatherDisplay:WD co,2013-07-19 15:45:00,
2013-07-19 18:55:00,89.2,65.1,27.93,ENE,60,2.0,8.0,45,0.00,18:55,,0.00,WeatherDisplay:WD co,2013-07-19 15:55:00,
2013-07-19 19:00:00,88.5,64.5,27.93,ENE,78,7.0,15.0,45,0.00,19:00,,0.00,WeatherDisplay:WD co,2013-07-19 16:00:00,
2013-07-19 19:10:00,86.7,63.5,27.93,NE,49,3.0,11.0,46,0.00,19:10,,0.00,WeatherDisplay:WD co,2013-07-19 16:10:00,
2013-07-19 19:30:00,85.8,63.3,27.93,NE,54,3.0,11.0,47,0.00,19:30,,0.00,WeatherDisplay:WD co,2013-07-19 16:30:00,
2013-07-19 19:35:00,85.6,63.1,27.93,NE,38,1.0,5.0,47,0.00,19:35,,0.00,WeatherDisplay:WD co,2013-07-19 16:35:00,
2013-07-19 19:40:00,85.6,63.1,27.94,NE,47,1.0,8.0,47,0.00,19:40,,0.00,WeatherDisplay:WD co,2013-07-19 16:40:00,
2013-07-19 19:45:00,85.3,62.8,27.94,NE,37,2.0,11.0,47,0.00,19:45,,0.00,WeatherDisplay:WD co,2013-07-19 16:45:00,
2013-07-19 19:55:00,84.9,63.0,27.94,East,85,2.0,6.0,48,0.00,19:55,,0.00,WeatherDisplay:WD co,2013-07-19 16:55:00,
2013-07-19 20:05:00,84.6,62.7,27.94,NNE,15,1.0,8.0,48,0.00,20:05,,0.00,WeatherDisplay:WD co,2013-07-19 17:05:00,
2013-07-19 20:10:00,84.4,62.5,27.94,NNE,13,1.0,8.0,48,0.00,20:10,,0.00,WeatherDisplay:WD co,2013-07-19 17:10:00,
2013-07-19 20:15:00,84.4,62.5,27.94,NNE,13,1.0,8.0,48,0.00,20:10,,0.00,WeatherDisplay:WD co,2013-07-19 17:15:00,
2013-07-19 20:20:00,84.0,62.2,27.94,NNE,24,3.0,9.0,48,0.00,20:20,,0.00,WeatherDisplay:WD co,2013-07-19 17:20:00,
2013-07-19 20:30:00,83.8,61.5,27.94,NNE,27,1.0,10.0,47,0.00,20:30,,0.00,WeatherDisplay:WD co,2013-07-19 17:30:00,
2013-07-19 20:40:00,83.5,61.7,27.94,North,353,1.0,10.0,48,0.00,20:40,,0.00,WeatherDisplay:WD co,2013-07-19 17:40:00,
2013-07-19 20:45:00,83.3,61.6,27.94,NNE,18,1.0,5.0,48,0.00,20:45,,0.00,WeatherDisplay:WD co,2013-07-19 17:45:00,
2013-07-19 20:50:00,83.1,61.4,27.94,NNE,19,3.0,11.0,48,0.00,20:50,,0.00,WeatherDisplay:WD co,2013-07-19 17:50:00,
2013-07-19 20:55:00,82.9,61.2,27.94,ENE,75,3.0,11.0,48,0.00,20:55,,0.00,WeatherDisplay:WD co,2013-07-19 17:55:00,
2013-07-19 21:00:00,82.9,61.2,27.94,NE,56,5.0,8.0,48,0.00,21:00,,0.00,WeatherDisplay:WD co,2013-07-19 18:00:00,
2013-07-19 21:05:00,82.9,61.2,27.94,NNE,32,0.0,8.0,48,0.00,21:05,,0.00,WeatherDisplay:WD co,2013-07-19 18:05:00,
2013-07-19 21:10:00,82.8,62.8,27.94,NE,55,5.0,9.0,51,0.00,21:10,,0.00,WeatherDisplay:WD co,2013-07-19 18:10:00,
2013-07-19 21:20:00,82.4,63.0,27.94,East,91,3.0,7.0,52,0.00,21:20,,0.00,WeatherDisplay:WD co,2013-07-19 18:20:00,
2013-07-19 21:25:00,82.4,63.5,27.94,NE,35,2.0,12.0,53,0.00,21:25,,0.00,WeatherDisplay:WD co,2013-07-19 18:25:00,
2013-07-19 21:35:00,82.2,63.4,27.95,ENE,68,2.0,5.0,53,0.00,21:35,,0.00,WeatherDisplay:WD co,2013-07-19 18:35:00,
2013-07-19 21:40:00,82.0,63.2,27.95,ENE,77,0.0,13.0,53,0.00,21:40,,0.00,WeatherDisplay:WD co,2013-07-19 18:40:00,
2013-07-19 21:45:00,81.9,63.6,27.96,ENE,68,1.0,8.0,54,0.00,21:45,,0.00,WeatherDisplay:WD co,2013-07-19 18:45:00,
2013-07-19 21:50:00,81.7,63.4,27.96,NE,42,3.0,9.0,54,0.00,21:50,,0.00,WeatherDisplay:WD co,2013-07-19 18:50:00,
2013-07-19 22:00:00,81.5,63.8,27.96,NE,38,1.0,4.0,55,0.00,22:00,,0.00,WeatherDisplay:WD co,2013-07-19 19:00:00,
2013-07-19 22:05:00,81.5,63.8,27.96,NE,38,1.0,4.0,55,0.00,22:00,,0.00,WeatherDisplay:WD co,2013-07-19 19:05:00,
2013-07-19 22:10:00,81.3,63.6,27.96,NE,48,2.0,8.0,55,0.00,22:10,,0.00,WeatherDisplay:WD co,2013-07-19 19:10:00,
2013-07-19 22:15:00,81.3,63.1,27.96,NE,36,0.0,2.0,54,0.00,22:15,,0.00,WeatherDisplay:WD co,2013-07-19 19:15:00,
2013-07-19 22:20:00,81.1,62.9,27.96,NE,34,0.0,0.0,54,0.00,22:20,,0.00,WeatherDisplay:WD co,2013-07-19 19:20:00,
2013-07-19 22:30:00,81.0,62.7,27.96,North,360,0.0,4.0,54,0.00,22:30,,0.00,WeatherDisplay:WD co,2013-07-19 19:30:00,
2013-07-19 22:35:00,81.0,62.7,27.96,North,360,0.0,4.0,54,0.00,22:30,,0.00,WeatherDisplay:WD co,2013-07-19 19:35:00,
2013-07-19 22:40:00,80.4,62.8,27.96,ESE,113,0.0,0.0,55,0.00,22:40,,0.00,WeatherDisplay:WD co,2013-07-19 19:40:00,
2013-07-19 22:45:00,80.4,62.8,27.96,ENE,74,0.0,4.0,55,0.00,22:45,,0.00,WeatherDisplay:WD co,2013-07-19 19:45:00,
2013-07-19 22:50:00,80.4,63.3,27.96,NNE,29,0.0,4.0,56,0.00,22:50,,0.00,WeatherDisplay:WD co,2013-07-19 19:50:00,
2013-07-19 22:55:00,80.4,63.3,27.96,NNE,29,0.0,4.0,56,0.00,22:50,,0.00,WeatherDisplay:WD co,2013-07-19 19:55:00,
2013-07-19 23:05:00,80.1,62.9,27.96,ENE,71,0.0,0.0,56,0.00,23:05,,0.00,WeatherDisplay:WD co,2013-07-19 20:05:00,
2013-07-19 23:20:00,79.9,62.8,27.96,NNE,13,0.0,0.0,56,0.00,23:20,,0.00,WeatherDisplay:WD co,2013-07-19 20:20:00,
2013-07-19 23:25:00,79.9,62.8,27.97,NNE,32,0.0,0.0,56,0.00,23:25,,0.00,WeatherDisplay:WD co,2013-07-19 20:25:00,
2013-07-19 23:30:00,79.7,62.6,27.96,NNE,29,0.0,0.0,56,0.00,23:30,,0.00,WeatherDisplay:WD co,2013-07-19 20:30:00,
2013-07-19 23:40:00,79.3,62.3,27.95,North,355,0.0,0.0,56,0.00,23:40,,0.00,WeatherDisplay:WD co,2013-07-19 20:40:00,
2013-07-19 23:45:00,79.3,62.3,27.95,North,355,0.0,0.0,56,0.00,23:40,,0.00,WeatherDisplay:WD co,2013-07-19 20:45:00,
2013-07-19 23:50:00,78.8,62.3,27.95,West,279,0.0,0.0,57,0.00,23:50,,0.00,WeatherDisplay:WD co,2013-07-19 20:50:00,
2013-07-19 23:55:00,78.6,62.1,27.95,WNW,287,0.0,0.0,57,0.00,23:55,,0.00,WeatherDisplay:WD co,2013-07-19 20:55:00,